| time (UTC) | temp F | wind direction | speed MPH | gust MPH | rain 1hr in | rain 24hr in | rain mn in | humidity % | barometer mb |
| 20260508121822 | 47 | 183 | 0.0 | 1.0 | 0.00 | 0.00 | 0.00 | 77 | 1012.4 |
| 20260508120814 | 47 | 319 | 0.0 | 4.0 | 0.00 | 0.00 | 0.00 | 78 | 1012.4 |
| 20260508115838 | 47 | 235 | 0.0 | 3.0 | 0.00 | 0.00 | 0.00 | 78 | 1012.4 |
| 20260508114827 | 46 | 319 | 0.0 | 0.0 | 0.00 | 0.00 | 0.00 | 80 | 1012.2 |
| 20260508113840 | 45 | 326 | 0.0 | 2.0 | 0.00 | 0.00 | 0.00 | 81 | 1012.1 |
| 20260508111644 | 45 | 300 | 0.0 | 4.0 | 0.00 | 0.00 | 0.00 | 84 | 1012.3 |
| 20260508110708 | 44 | 317 | 0.0 | 4.0 | 0.00 | 0.00 | 0.00 | 85 | 1012.3 |
| 20260508105649 | 44 | 276 | 0.0 | 3.0 | 0.00 | 0.00 | 0.00 | 87 | 1012.2 |
| 20260508103504 | 42 | 89 | 0.0 | 0.0 | 0.00 | 0.00 | 0.00 | 88 | 1011.9 |
| 20260508102504 | 42 | 146 | 0.0 | 0.0 | 0.00 | 0.00 | 0.00 | 88 | 1011.8 |
| 20260508101437 | 42 | 148 | 0.0 | 0.0 | 0.00 | 0.00 | 0.00 | 88 | 1011.7 |
| 20260508100409 | 43 | 148 | 0.0 | 0.0 | 0.00 | 0.00 | 0.00 | 87 | 1011.6 |
| 20260508095415 | 43 | 148 | 0.0 | 0.0 | 0.00 | 0.00 | 0.00 | 87 | 1011.5 |
| 20260508094419 | 43 | 148 | 0.0 | 0.0 | 0.00 | 0.00 | 0.00 | 87 | 1011.5 |
| 20260508093440 | 44 | 148 | 0.0 | 0.0 | 0.00 | 0.00 | 0.00 | 86 | 1011.5 |
| 20260508092430 | 44 | 221 | 0.0 | 0.0 | 0.00 | 0.00 | 0.00 | 86 | 1011.4 |
| 20260508090305 | 44 | 135 | 0.0 | 0.0 | 0.00 | 0.00 | 0.00 | 86 | 1011.1 |
| 20260508084139 | 45 | 135 | 0.0 | 0.0 | 0.00 | 0.00 | 0.00 | 85 | 1011.2 |
| 20260508083120 | 45 | 247 | 0.0 | 0.0 | 0.00 | 0.00 | 0.00 | 84 | 1011.5 |
| 20260508082124 | 45 | 190 | 0.0 | 0.0 | 0.00 | 0.00 | 0.00 | 83 | 1011.4 |
| 20260508081116 | 45 | 191 | 0.0 | 0.0 | 0.00 | 0.01 | 0.00 | 82 | 1011.5 |
| 20260508080125 | 45 | 38 | 0.0 | 0.0 | 0.00 | 0.01 | 0.00 | 81 | 1011.4 |
| 20260508075142 | 45 | 59 | 0.0 | 0.0 | 0.00 | 0.01 | 0.00 | 81 | 1011.5 |
| 20260508074110 | 45 | 269 | 0.0 | 0.0 | 0.00 | 0.02 | 0.00 | 79 | 1011.4 |
| 20260508073057 | 45 | 132 | 0.0 | 0.0 | 0.00 | 0.03 | 0.00 | 78 | 1011.2 |
| 20260508072111 | 46 | 82 | 0.0 | 1.0 | 0.00 | 0.04 | 0.00 | 77 | 1011.3 |
| 20260508071107 | 46 | 97 | 0.0 | 0.0 | 0.00 | 0.06 | 0.00 | 74 | 1011.3 |
| 20260508064949 | 46 | 83 | 0.0 | 0.0 | 0.00 | 0.09 | 0.00 | 73 | 1011.4 |
| 20260508063944 | 47 | 238 | 0.0 | 2.0 | 0.00 | 0.10 | 0.00 | 70 | 1011.3 |
| 20260508062955 | 48 | 290 | 0.0 | 6.0 | 0.00 | 0.11 | 0.00 | 68 | 1011.5 |
| 20260508061959 | 48 | 251 | 0.0 | 1.0 | 0.00 | 0.12 | 0.00 | 65 | 1011.3 |
| 20260508060957 | 48 | 238 | 0.0 | 1.0 | 0.00 | 0.12 | 0.00 | 64 | 1010.9 |
| 20260508054905 | 48 | 243 | 0.0 | 3.0 | 0.00 | 0.12 | 0.00 | 66 | 1010.2 |
| 20260508053835 | 47 | 173 | 0.0 | 3.0 | 0.00 | 0.12 | 0.00 | 65 | 1010.2 |
| 20260508052852 | 45 | 44 | 0.0 | 2.0 | 0.00 | 0.12 | 0.00 | 74 | 1010.1 |
| 20260508051822 | 44 | 141 | 0.0 | 0.0 | 0.00 | 0.12 | 0.00 | 78 | 1010.0 |
| 20260508050758 | 44 | 141 | 0.0 | 0.0 | 0.00 | 0.12 | 0.00 | 76 | 1009.9 |
| 20260508045744 | 43 | 156 | 0.0 | 0.0 | 0.00 | 0.12 | 0.00 | 78 | 1009.9 |
| 20260508044711 | 43 | 156 | 0.0 | 0.0 | 0.00 | 0.12 | 0.00 | 79 | 1009.7 |
| 20260508043654 | 43 | 156 | 0.0 | 0.0 | 0.00 | 0.12 | 0.00 | 80 | 1009.6 |
| 20260508042655 | 43 | 156 | 0.0 | 0.0 | 0.00 | 0.12 | 0.00 | 81 | 1009.8 |
| 20260508041642 | 44 | 151 | 0.0 | 0.0 | 0.00 | 0.12 | 0.00 | 81 | 1009.8 |
| 20260508040622 | 44 | 151 | 0.0 | 0.0 | 0.00 | 0.12 | 0.00 | 80 | 1009.9 |
| 20260508035551 | 44 | 142 | 0.0 | 0.0 | 0.00 | 0.12 | 0.12 | 78 | 1009.9 |
| 20260508034541 | 44 | 140 | 0.0 | 0.0 | 0.00 | 0.12 | 0.12 | 77 | 1009.9 |
| 20260508032356 | 44 | 299 | 0.0 | 0.0 | 0.00 | 0.12 | 0.12 | 76 | 1010.0 |
| 20260508031411 | 44 | 299 | 0.0 | 0.0 | 0.00 | 0.12 | 0.12 | 75 | 1010.0 |
| 20260508030409 | 44 | 300 | 0.0 | 0.0 | 0.00 | 0.12 | 0.12 | 75 | 1010.1 |
| 20260508025342 | 45 | 300 | 0.0 | 0.0 | 0.00 | 0.12 | 0.12 | 75 | 1010.2 |
| 20260508024405 | 45 | 300 | 0.0 | 0.0 | 0.00 | 0.12 | 0.12 | 75 | 1010.1 |
| 20260508023347 | 45 | 300 | 0.0 | 0.0 | 0.00 | 0.12 | 0.12 | 74 | 1010.0 |
| 20260508022349 | 46 | 300 | 0.0 | 0.0 | 0.00 | 0.12 | 0.12 | 72 | 1009.9 |
| 20260508021351 | 46 | 300 | 0.0 | 0.0 | 0.00 | 0.12 | 0.12 | 71 | 1009.9 |
| 20260508020352 | 46 | 300 | 0.0 | 0.0 | 0.00 | 0.12 | 0.12 | 71 | 1009.9 |
| 20260508015356 | 47 | 300 | 0.0 | 0.0 | 0.00 | 0.12 | 0.12 | 72 | 1009.8 |
| 20260508014418 | 47 | 300 | 0.0 | 0.0 | 0.00 | 0.12 | 0.12 | 70 | 1009.7 |
| 20260508013424 | 48 | 276 | 0.0 | 0.0 | 0.00 | 0.12 | 0.12 | 68 | 1009.6 |
| 20260508012418 | 48 | 276 | 0.0 | 0.0 | 0.00 | 0.12 | 0.12 | 66 | 1009.5 |
| 20260508011357 | 49 | 276 | 0.0 | 0.0 | 0.00 | 0.12 | 0.12 | 63 | 1009.4 |
| 20260508005248 | 50 | 274 | 0.0 | 0.0 | 0.00 | 0.12 | 0.12 | 62 | 1009.2 |
| 20260508004245 | 50 | 274 | 0.0 | 0.0 | 0.00 | 0.12 | 0.12 | 61 | 1009.1 |
| 20260508003253 | 51 | 274 | 0.0 | 0.0 | 0.00 | 0.12 | 0.12 | 57 | 1008.9 |
| 20260508002301 | 52 | 274 | 0.0 | 0.0 | 0.00 | 0.12 | 0.12 | 56 | 1008.5 |
| 20260508001322 | 52 | 274 | 0.0 | 0.0 | 0.00 | 0.12 | 0.12 | 52 | 1008.4 |
| 20260508000308 | 53 | 274 | 0.0 | 0.0 | 0.00 | 0.12 | 0.12 | 52 | 1008.6 |
| 20260507235320 | 54 | 274 | 0.0 | 0.0 | 0.00 | 0.12 | 0.12 | 50 | 1008.5 |
| 20260507234340 | 55 | 274 | 0.0 | 0.0 | 0.00 | 0.12 | 0.12 | 47 | 1008.4 |
| 20260507233313 | 56 | 293 | 0.0 | 0.0 | 0.00 | 0.12 | 0.12 | 44 | 1008.3 |
| 20260507232327 | 57 | 241 | 0.0 | 1.0 | 0.00 | 0.12 | 0.12 | 45 | 1008.2 |
| 20260507231302 | 57 | 248 | 0.0 | 0.0 | 0.00 | 0.12 | 0.12 | 43 | 1008.2 |
| 20260507230326 | 57 | 215 | 0.0 | 2.0 | 0.00 | 0.12 | 0.12 | 44 | 1008.1 |
| 20260507225337 | 58 | 263 | 0.0 | 5.0 | 0.00 | 0.12 | 0.12 | 42 | 1008.0 |
| 20260507224318 | 58 | 274 | 1.0 | 4.0 | 0.00 | 0.12 | 0.12 | 42 | 1008.0 |
| 20260507223331 | 59 | 233 | 0.0 | 4.0 | 0.00 | 0.12 | 0.12 | 41 | 1008.0 |
| 20260507222345 | 59 | 231 | 0.0 | 4.0 | 0.00 | 0.12 | 0.12 | 41 | 1007.9 |
| 20260507221319 | 60 | 313 | 0.0 | 4.0 | 0.00 | 0.12 | 0.12 | 40 | 1008.0 |
| 20260507220340 | 59 | 212 | 0.0 | 4.0 | 0.00 | 0.12 | 0.12 | 40 | 1008.1 |
| 20260507215335 | 60 | 346 | 0.0 | 4.0 | 0.00 | 0.12 | 0.12 | 40 | 1008.0 |
| 20260507211006 | 61 | 79 | 0.0 | 7.0 | 0.00 | 0.13 | 0.12 | 41 | 1007.6 |
| 20260507210014 | 60 | 14 | 0.0 | 7.0 | 0.00 | 0.13 | 0.12 | 43 | 1007.6 |
| 20260507204947 | 61 | 89 | 1.0 | 7.0 | 0.00 | 0.13 | 0.12 | 41 | 1007.6 |
| 20260507203951 | 62 | 227 | 0.0 | 3.0 | 0.00 | 0.13 | 0.12 | 43 | 1007.5 |
| 20260507202932 | 61 | 32 | 0.0 | 5.0 | 0.00 | 0.13 | 0.12 | 40 | 1007.4 |
| 20260507201932 | 61 | 310 | 1.0 | 5.0 | 0.00 | 0.15 | 0.12 | 40 | 1007.5 |
| 20260507200904 | 61 | 176 | 0.0 | 5.0 | 0.00 | 0.16 | 0.12 | 41 | 1007.5 |
| 20260507195918 | 62 | 62 | 1.0 | 5.0 | 0.00 | 0.16 | 0.12 | 41 | 1007.6 |
| 20260507194925 | 62 | 323 | 0.0 | 4.0 | 0.00 | 0.17 | 0.12 | 41 | 1007.7 |
| 20260507193948 | 62 | 326 | 0.0 | 4.0 | 0.00 | 0.18 | 0.12 | 40 | 1007.7 |
| 20260507192931 | 62 | 344 | 1.0 | 7.0 | 0.00 | 0.19 | 0.12 | 40 | 1008.0 |
| 20260507191907 | 63 | 309 | 1.0 | 7.0 | 0.00 | 0.19 | 0.12 | 43 | 1008.1 |
| 20260507190902 | 62 | 304 | 1.0 | 7.0 | 0.00 | 0.19 | 0.12 | 39 | 1008.1 |
| 20260507185908 | 62 | 142 | 1.0 | 6.0 | 0.00 | 0.19 | 0.12 | 40 | 1008.2 |
| 20260507184931 | 61 | 233 | 1.0 | 6.0 | 0.00 | 0.19 | 0.12 | 41 | 1008.4 |
| 20260507183923 | 61 | 326 | 1.0 | 6.0 | 0.00 | 0.19 | 0.12 | 39 | 1008.5 |
| 20260507182859 | 61 | 131 | 1.0 | 5.0 | 0.00 | 0.19 | 0.12 | 42 | 1008.5 |
| 20260507181902 | 61 | 118 | 1.0 | 5.0 | 0.00 | 0.19 | 0.12 | 43 | 1008.6 |
| 20260507173455 | 60 | 298 | 0.0 | 3.0 | 0.00 | 0.20 | 0.12 | 43 | 1009.2 |
| 20260507172439 | 60 | 46 | 1.0 | 6.0 | 0.00 | 0.20 | 0.12 | 41 | 1009.5 |
| 20260507171445 | 60 | 127 | 0.0 | 6.0 | 0.00 | 0.21 | 0.12 | 45 | 1009.5 |
| 20260507170503 | 60 | 34 | 1.0 | 6.0 | 0.00 | 0.21 | 0.12 | 42 | 1009.7 |
| 20260507165521 | 59 | 351 | 0.0 | 3.0 | 0.00 | 0.22 | 0.12 | 46 | 1009.8 |
| 20260507164501 | 59 | 147 | 0.0 | 6.0 | 0.00 | 0.22 | 0.12 | 45 | 1009.7 |
| 20260507163432 | 58 | 68 | 1.0 | 6.0 | 0.00 | 0.22 | 0.12 | 44 | 1009.9 |
| 20260507162454 | 58 | 72 | 1.0 | 5.0 | 0.00 | 0.22 | 0.12 | 45 | 1010.0 |
| 20260507161447 | 58 | 200 | 1.0 | 5.0 | 0.00 | 0.22 | 0.12 | 44 | 1010.2 |
| 20260507160444 | 57 | 44 | 1.0 | 6.0 | 0.00 | 0.22 | 0.12 | 45 | 1010.3 |
| 20260507155437 | 56 | 260 | 1.0 | 4.0 | 0.00 | 0.22 | 0.12 | 45 | 1010.4 |
| 20260507153316 | 55 | 33 | 1.0 | 7.0 | 0.00 | 0.22 | 0.12 | 47 | 1010.6 |
| 20260507152259 | 54 | 326 | 2.0 | 7.0 | 0.00 | 0.22 | 0.12 | 48 | 1010.9 |
| 20260507151256 | 54 | 322 | 1.0 | 4.0 | 0.00 | 0.22 | 0.12 | 47 | 1010.8 |
| 20260507145152 | 53 | 337 | 1.0 | 5.0 | 0.00 | 0.22 | 0.12 | 53 | 1010.9 |
| 20260507144151 | 52 | 333 | 1.0 | 4.0 | 0.00 | 0.22 | 0.12 | 57 | 1010.8 |
| 20260507143140 | 52 | 268 | 0.0 | 5.0 | 0.00 | 0.22 | 0.12 | 60 | 1010.9 |
| 20260507142133 | 51 | 307 | 1.0 | 5.0 | 0.00 | 0.22 | 0.12 | 64 | 1010.9 |
| 20260507141124 | 51 | 6 | 1.0 | 4.0 | 0.00 | 0.22 | 0.12 | 65 | 1010.9 |
| 20260507140053 | 50 | 342 | 1.0 | 4.0 | 0.00 | 0.22 | 0.12 | 73 | 1010.9 |
| 20260507134002 | 49 | 91 | 1.0 | 4.0 | 0.00 | 0.22 | 0.12 | 84 | 1010.7 |
| 20260507133007 | 49 | 69 | 0.0 | 3.0 | 0.00 | 0.22 | 0.12 | 86 | 1010.7 |
| 20260507132007 | 48 | 121 | 0.0 | 3.0 | 0.00 | 0.22 | 0.12 | 89 | 1010.6 |
| 20260507130952 | 48 | 1 | 0.0 | 8.0 | 0.00 | 0.22 | 0.12 | 90 | 1010.7 |
| 20260507125957 | 48 | 323 | 0.0 | 2.0 | 0.00 | 0.22 | 0.12 | 93 | 1010.6 |
| 20260507124948 | 48 | 115 | 0.0 | 2.0 | 0.00 | 0.22 | 0.12 | 95 | 1010.5 |
| 20260507124002 | 47 | 317 | 1.0 | 8.0 | 0.00 | 0.22 | 0.12 | 95 | 1010.5 |
| 20260507122933 | 47 | 136 | 0.0 | 4.0 | 0.00 | 0.22 | 0.12 | 96 | 1010.6 |